Regional Weather Roundup
Issued by NWS

Home | Current Version | Previous Version | Text Only | Print | Product List | Glossary On
Versions: 1 2 3 4 5 6 7 8 9 10 11 12 13 14 15 16 17 18 19 20 21 22 23 24 25 26 27 28 29 30 31 32 33 34 35 36 37 38 39 40 41 42 43 44 45 46 47 48 49 50
000
ASUS44 KOUN 290110
RWROK

WEATHER ROUNDUP FOR OKLAHOMA
NATIONAL WEATHER SERVICE NORMAN OK
800 PM CDT THU MAY 28 2015

NOTE: "FAIR" INDICATES FEW OR NO CLOUDS BELOW 12,000 FEET WITH NO
      SIGNIFICANT WEATHER AND/OR OBSTRUCTIONS TO VISIBILITY.

OKZ001>007-009>012-014-015-017-290200-
NORTHWEST OKLAHOMA AND THE PANHANDLE

CITY           SKY/WX    TMP DP  RH WIND       PRES   REMARKS
GAGE           CLOUDY    72  63  73 S10       29.91R
GUYMON         TSTM      61  55  81 SW17      30.05R
ENID/WOODRING  CLOUDY    77  72  83 SE12      29.86F
$$

OKZ016-021>023-033>039-044-045-290200-
SOUTHWEST OKLAHOMA

CITY           SKY/WX    TMP DP  RH WIND       PRES   REMARKS
LAWTON/REGL    LGT RAIN  67  61  81 SW12      30.03R
LAWTON/FT SILL TSTM      67  64  91 SW10      30.01R
FREDERICK      RAIN      67  64  90 E17       29.91F
CLINTON        CLOUDY    72  63  73 S21G31    29.87F
HOBART         CLOUDY    67  63  87 SE31G44   29.86F
ALTUS AFB      CLEAR     66  63  91 SE21G30   29.87F
$$

OKZ018>020-024>031-290200-
CENTRAL OKLAHOMA

CITY           SKY/WX    TMP DP  RH WIND       PRES   REMARKS
OKLAHOMA CITY  CLOUDY    72  68  87 S6        29.90F
OKC/WILEY POST CLOUDY    74  68  81 SE9       29.87F
OKC/TINKER AFB CLOUDY    74  71  89 E5        29.91S
STILLWATER     CLOUDY    74  70  87 SE9       29.89F
GUTHRIE        CLOUDY    75  70  84 SE6       29.86F
$$

OKZ008-013-054>072-290200-
NORTHEAST OKLAHOMA

CITY           SKY/WX    TMP DP  RH WIND       PRES   REMARKS
TULSA          CLOUDY    75  69  81 SE5       29.90F
TULSA/JONES    PTCLDY    78  69  73 S5        29.91F
PONCA CITY     CLOUDY    76  69  79 SE12      29.88F
BARTLESVILLE   MOCLDY    74  69  85 SE5       29.93F
MUSKOGEE       CLOUDY    75  68  78 SE8       29.95F
$$

OKZ032-040>043-046>053-073>077-290200-
SOUTH CENTRAL/SOUTHEAST OKLAHOMA

CITY           SKY/WX    TMP DP  RH WIND       PRES   REMARKS
ARDMORE/DWNTWN CLOUDY    77  61  57 SE8       29.90S
MCALESTER      CLEAR     78  71  79 SE6       29.94F
$$




USA.gov is the U.S. government's official web portal to all federal, state and local government web resources and services.